User: anonymous   Login
Location: Équennes
(49.7375°N, 1.9622°E)
Time: 02:39:44
(UTC+00:00)
Language:

Okean O Rocket - Orbit

View from above orbital plane
View from above orbital plane
View from above satellite
View from above satellite

Ground track
Ground track

The orbit data is extracted from the following two-line orbital elements,

1 25861U 99039B   23147.83157583  .00000489  00000-0  73001-4 0  9995
2 25861  98.1395 184.8956 0014255 308.0932  51.8992 14.79322239286532
Epoch (UTC): 27 May 2023 19:57:28
Eccentricity: 0.0014255
inclination: 98.1395°
perigee height: 621 km
apogee height: 641 km
right ascension of ascending node: 184.8956°
argument of perigee: 308.0932°
revolutions per day: 14.79322239
mean anomaly at epoch: 51.8992°
orbit number at epoch: 28653

The dashed part of the orbit path shows where the satellite is in the earth's shadow,  

DLR